Temperature
16 16 17 17 17 17 17 17 17 17 17 17 17 17 17 17 17 17 17 17 17 17 16 16 16 16 16 16 16 16 15 15 15 15 15 15 15 15 15 15 14 14 15
16 16 16 16 16 17 17 17 17 17 17 17 17 17 17 17 17 17 17 17 17 16 16 16 16 16 16 15 15 16 15 15 15 15 15 15 15 15 15 15 14 14 15
16 16 16 16 16 16 16 17 17 17 17 17 17 17 17 17 17 17 17 17 16 16 16 16 16 16 16 16 16 16 16 16 15 15 15 14 15 15 15 15 15 15 15
16 16 16 16 16 16 16 16 16 16 16 16 17 17 17 17 17 17 17 16 16 16 16 16 16 16 16 16 16 16 16 16 16 15 14 14 14 15 15 15 15 14 15
16 16 16 16 16 16 16 16 16 16 16 16 16 16 16 16 16 16 16 16 16 16 16 16 16 16 16 16 16 16 16 16 15 15 14 13 14 15 15 15 14 14 14
16 16 16 16 16 16 16 16 16 16 16 16 16 16 16 16 16 16 16 16 16 16 16 16 16 16 16 16 16 16 15 15 15 14 13 13 13 14 14 14 14 14 14
16 16 16 16 16 16 16 16 16 16 16 16 16 16 16 16 16 16 16 16 15 16 16 16 16 16 16 15 15 15 15 15 14 13 13 13 13 14 14 14 14 14 14
15 15 15 16 16 16 16 16 16 16 16 16 16 16 16 16 16 16 16 16 15 15 15 16 16 16 15 15 15 15 15 15 14 13 13 13 14 14 14 14 14 14 14
15 15 15 15 15 15 15 15 15 15 15 16 16 15 15 15 15 15 16 15 15 15 16 16 16 15 15 15 15 15 15 15 13 13 13 13 14 13 13 13 13 13 13
15 15 15 15 15 15 15 15 15 15 15 15 15 15 15 15 15 15 15 15 15 15 15 15 15 15 15 15 15 15 15 14 13 13 13 13 14 13 13 13 13 13 13
14 15 15 15 15 15 15 15 15 15 15 15 15 15 15 15 15 15 15 15 15 15 15 15 15 15 15 15 15 15 14 14 13 13 13 13 13 13 13 13 13 13 13
14 14 14 15 15 15 15 15 15 15 15 15 15 15 15 15 15 15 15 15 15 15 15 15 15 15 15 14 14 14 14 13 13 13 13 14 13 13 13 13 13 13 13
13 14 14 14 14 15 15 15 15 15 15 15 14 15 15 15 15 14 14 15 15 14 14 15 15 14 14 14 14 14 14 13 13 13 13 14 13 13 13 13 13 13 13
13 13 14 14 14 14 14 14 15 15 15 15 15 15 14 14 14 14 14 14 14 14 14 14 14 14 14 14 14 14 14 14 14 13 13 14 13 13 13 13 13 13 13
12 13 13 13 14 14 14 14 14 15 15 15 14 14 14 14 14 14 14 14 14 14 14 14 14 14 14 14 14 14 14 14 13 13 13 14 13 13 13 13 13 13 13
11 12 13 13 13 14 14 14 14 14 14 14 14 14 14 14 14 14 14 14 14 14 14 14 14 14 14 14 14 14 14 13 13 13 13 13 13 13 13 13 13 13 13
11 11 12 12 13 13 13 14 14 14 14 14 14 14 14 14 14 14 14 14 14 14 14 14 14 14 14 14 13 13 13 13 13 13 13 13 13 13 13 13 13 13 13
10 11 11 12 12 13 13 13 13 13 14 14 14 14 14 14 14 14 14 14 14 13 13 13 13 13 13 13 13 13 13 13 13 13 13 13 13 13 13 13 13 13 13
10 10 10 11 12 12 12 13 13 13 13 13 13 13 13 13 13 13 13 13 13 13 13 13 13 13 13 13 13 13 13 13 13 13 13 13 13 13 13 13 13 13 13
9 10 10 10 11 11 12 12 12 12 13 13 13 13 13 13 13 13 13 13 13 13 13 13 13 13 13 13 13 13 13 13 13 13 13 13 13 13 13 13 13 13 13
9 9 10 10 10 11 11 11 11 12 12 12 12 13 13 13 13 12 13 12 12 12 12 13 12 12 12 12 12 12 12 12 12 13 13 13 13 13 13 13 13 13 13
8 9 9 9 10 10 10 11 11 11 11 11 12 12 12 12 12 12 12 12 12 12 12 12 12 12 12 12 11 11 12 12 12 12 13 13 13 13 13 13 13 13 13
8 8 8 9 9 10 10 10 10 10 11 11 11 11 11 12 12 12 12 12 12 12 12 12 12 12 11 11 11 11 12 13 13 12 13 13 13 13 13 13 13 12 12
7 8 8 8 9 9 9 9 10 10 10 10 10 11 11 11 11 11 11 11 11 11 11 11 11 11 11 11 11 11 12 12 12 12 12 13 13 12 12 12 12 12 12
7 7 7 8 8 8 9 9 9 9 9 9 10 10 10 11 11 11 11 11 11 11 11 11 11 11 11 11 11 11 11 11 11 12 12 12 12 12 12 12 12 12 12
6 7 7 7 8 8 8 8 8 8 8 9 9 9 10 10 10 10 10 10 10 10 10 11 11 11 11 11 11 11 10 10 11 11 11 11 12 12 12 12 12 12 12
Wind_Speed
3 3 10 12 13 14 14 13 13 15 16 16 16 16 16 15 14 14 14 14 14 14 14 14 13 13 13 13 14 14 14 14 14 14 14 13 13 13 12 9 8 13 13
6 3 10 12 13 14 14 13 13 14 15 16 16 16 16 15 14 14 14 14 14 14 14 14 14 14 13 13 14 14 14 14 14 13 13 13 13 12 12 11 11 12 12
6 3 9 12 13 14 14 14 13 13 14 15 16 16 16 15 15 15 14 14 14 14 14 15 14 14 14 14 13 13 13 13 12 10 8 11 12 11 11 11 12 12 12
6 3 7 11 13 14 14 14 14 14 14 15 15 16 16 16 16 15 15 14 14 14 15 15 15 15 14 14 13 13 13 12 11 7 7 9 10 11 11 11 11 11 11
5 2 5 9 13 14 14 14 14 14 14 15 15 15 15 16 16 16 16 15 14 15 15 15 15 15 14 13 13 12 12 11 8 5 8 8 9 10 10 11 11 11 11
5 3 3 7 11 14 14 14 15 15 15 15 15 16 16 16 16 16 16 15 15 15 16 16 16 15 14 13 12 12 11 10 8 7 7 7 9 10 10 10 10 10 10
6 4 3 5 9 12 14 15 15 15 15 16 16 16 16 16 17 17 16 15 16 16 17 16 16 15 13 12 12 12 11 8 6 7 7 7 9 9 9 9 9 9 9
7 6 5 4 7 10 12 14 15 15 15 16 16 16 17 17 18 17 17 17 17 17 17 17 16 15 13 12 12 12 11 8 7 7 6 7 8 8 8 8 8 7 7
8 7 6 6 7 9 11 14 15 15 15 16 16 16 17 17 18 18 18 18 18 18 18 17 16 15 13 12 12 12 11 8 6 6 6 6 7 6 7 7 6 6 6
8 7 6 6 7 8 10 13 15 15 15 16 17 17 17 17 17 18 19 19 19 19 18 18 17 15 14 13 12 12 11 9 6 6 5 6 7 6 7 6 6 6 6
9 8 7 7 7 8 9 10 13 14 15 15 17 17 16 16 17 17 20 20 20 19 19 18 17 16 14 12 12 12 12 8 7 6 5 6 7 7 7 6 6 6 5
12 11 9 8 8 8 8 8 10 12 13 15 14 15 16 15 15 15 18 20 20 20 19 18 17 16 14 12 12 13 10 9 7 6 6 7 8 8 8 7 7 6 6
13 12 10 9 9 8 7 7 7 8 10 13 14 14 14 14 13 13 13 15 18 18 17 17 17 15 14 11 11 12 10 9 7 7 7 10 9 9 9 9 8 8 8
14 13 12 10 9 9 8 7 7 7 7 8 12 14 12 9 9 10 10 13 14 15 15 14 13 15 14 13 13 12 11 9 8 7 7 11 11 11 10 10 10 10 10
14 14 12 11 10 9 8 7 7 8 8 9 10 12 13 9 10 10 9 11 13 14 13 12 12 13 12 12 12 12 11 11 10 9 7 11 12 12 11 11 11 12 11
14 13 12 11 11 10 9 8 8 8 8 9 9 11 14 11 10 10 10 10 11 12 13 12 12 11 10 10 11 12 12 12 11 11 9 10 14 14 13 12 12 12 12
14 13 13 12 11 11 10 10 8 8 8 8 8 11 13 13 12 11 10 10 10 12 12 10 11 10 9 9 11 12 11 11 11 12 11 10 11 14 15 14 14 13 13
13 13 12 11 11 11 10 9 8 8 8 8 8 9 11 13 13 10 9 10 11 11 10 9 9 9 9 10 10 10 10 9 12 12 12 11 11 11 14 16 15 14 13
12 12 12 11 11 11 10 8 8 7 7 7 8 8 10 12 13 10 9 9 11 9 10 10 10 10 10 10 10 9 10 10 10 11 12 13 12 12 11 12 15 15 14
11 10 10 10 10 9 8 7 6 7 7 7 7 8 10 10 12 11 9 11 11 9 10 10 11 10 9 9 9 9 9 10 10 11 12 12 12 13 13 12 12 13 15
9 9 9 8 8 6 5 6 6 7 7 7 7 9 10 11 11 11 10 10 10 11 11 12 11 11 10 8 7 8 10 11 12 11 11 11 12 13 13 13 12 11 11
8 8 8 7 6 5 5 5 5 6 5 6 6 7 9 10 11 10 11 9 10 10 12 12 11 9 8 9 8 7 7 10 11 12 11 11 12 11 11 13 13 13 11
9 8 6 5 4 4 4 3 3 4 4 5 5 5 6 8 9 9 10 10 10 10 11 12 13 13 10 10 10 8 7 10 7 9 12 12 12 11 11 11 13 14 14
9 7 5 4 3 3 2 1 2 3 4 5 4 4 5 6 7 7 8 10 10 10 11 12 13 11 12 10 10 11 9 5 6 6 7 10 12 12 12 10 11 13 14
9 8 6 5 5 4 2 1 1 1 2 3 2 3 4 3 4 5 6 7 9 9 11 12 12 13 12 12 10 8 10 8 9 7 7 7 8 10 11 11 10 11 14
9 9 9 8 7 6 5 4 3 3 3 3 3 3 3 3 3 4 5 6 7 7 9 10 11 13 13 13 11 10 9 8 9 9 9 8 8 8 9 9 9 10 12
Wind_Direction
337 211 171 177 171 164 159 157 158 158 159 160 160 159 159 159 158 157 156 155 154 151 148 146 144 139 132 127 120 115 110 107 106 100 97 95 95 96 94 93 98 90 86
324 231 172 181 176 169 164 161 160 160 162 163 164 164 164 163 163 163 162 161 160 156 153 150 145 139 133 126 120 116 111 108 106 104 105 102 96 95 93 81 73 89 88
326 235 184 183 179 174 170 166 165 165 166 167 169 169 169 169 169 169 168 168 165 161 156 151 145 139 132 125 122 119 117 114 113 118 139 118 106 100 98 93 89 92 90
328 248 197 180 182 178 175 173 171 172 173 172 173 174 174 175 175 174 174 173 170 163 157 152 144 139 134 130 127 125 122 120 123 155 132 114 113 108 106 100 95 94 91
337 274 204 184 187 183 179 178 179 180 181 178 178 179 180 180 180 180 179 177 171 163 157 151 146 144 141 138 135 132 130 128 140 162 115 114 111 114 109 104 100 97 93
340 307 221 198 196 189 185 185 186 188 188 186 184 184 185 186 185 185 184 178 169 162 158 154 152 150 148 146 143 141 139 143 168 130 125 122 114 116 114 109 106 103 99
334 315 268 215 207 199 194 191 192 195 196 194 193 193 192 191 190 189 185 177 171 165 162 160 159 158 156 153 151 149 148 166 160 135 132 125 116 122 121 121 115 109 104
331 315 288 249 228 214 206 202 200 202 203 201 200 200 199 197 195 193 187 181 176 172 169 168 167 166 164 162 159 157 158 177 160 146 143 132 122 135 128 123 120 116 110
334 320 301 274 243 223 216 213 210 209 209 207 205 205 203 201 200 196 191 185 182 178 176 174 174 173 171 169 165 163 167 190 176 157 155 142 141 148 141 137 134 130 124
334 326 311 293 270 249 233 221 216 215 214 213 211 209 207 206 203 199 194 189 186 183 180 179 180 179 177 175 171 169 172 191 186 169 173 151 161 169 160 157 154 149 143
326 324 314 301 283 266 253 238 226 220 219 218 217 211 209 213 209 202 201 192 190 187 184 182 183 182 178 177 175 172 179 200 189 190 185 153 188 190 184 179 178 175 170
314 315 311 304 291 274 260 249 238 230 224 222 224 217 214 216 212 207 198 191 191 189 187 186 185 182 186 189 183 183 201 204 198 198 189 179 206 206 202 199 199 198 195
303 302 301 298 291 277 261 252 244 236 230 226 226 223 219 217 212 208 197 193 196 194 195 191 190 195 199 198 192 199 208 206 209 205 195 194 216 218 215 211 210 211 210
297 295 295 291 285 276 264 253 245 238 232 228 224 223 220 217 214 208 203 199 198 198 200 197 201 201 203 202 204 206 205 210 215 213 200 197 220 226 225 220 220 220 220
290 290 290 287 279 272 263 253 245 240 235 231 226 222 218 218 215 211 210 204 201 199 198 200 203 202 204 206 209 212 213 215 218 216 208 205 221 230 232 230 228 227 226
286 286 287 283 276 269 260 252 248 243 238 236 231 226 220 219 216 212 212 210 206 202 201 201 202 202 205 208 213 215 219 220 225 223 223 211 218 228 235 237 236 233 232
285 284 283 282 274 265 259 253 248 243 240 237 233 231 225 220 217 213 211 210 209 203 201 202 204 204 207 212 218 220 222 225 225 226 225 226 221 223 229 236 238 237 236
285 282 282 281 274 264 256 251 247 244 241 240 237 232 227 222 218 216 211 210 206 202 200 198 199 203 208 213 220 220 222 225 231 230 227 227 228 225 223 226 233 234 233
286 283 281 279 274 266 257 249 246 245 240 240 236 233 229 224 219 216 214 212 204 202 202 200 201 206 211 215 221 223 226 227 231 230 231 229 228 226 228 218 222 227 227
290 287 282 279 273 266 255 246 241 241 238 236 236 235 233 228 220 218 217 214 205 203 204 203 203 206 214 213 218 226 230 232 233 232 233 230 228 226 227 225 220 221 222
301 293 285 280 277 267 250 238 234 236 238 237 236 237 235 233 227 223 220 216 210 209 208 206 205 208 212 208 213 227 233 233 235 233 232 230 227 225 224 224 223 220 216
317 306 293 283 280 266 251 244 236 236 241 243 242 238 233 232 230 224 221 218 216 215 213 210 208 211 209 199 206 216 228 228 228 229 228 228 229 223 223 223 221 220 219
334 322 307 301 296 282 262 249 244 235 239 238 239 239 236 234 234 228 226 223 220 219 219 214 207 209 211 206 210 213 219 228 223 218 222 225 225 223 222 220 220 220 219
343 336 327 331 328 319 306 263 234 227 233 242 247 248 250 244 241 236 233 231 228 225 224 220 215 215 213 211 212 226 237 246 226 221 214 221 223 225 225 221 220 220 220
354 357 1 6 7 5 15 34 11 316 277 280 288 273 268 266 259 250 240 237 235 232 230 224 219 217 216 216 211 213 226 233 234 235 232 219 221 226 226 222 220 219 219
9 13 16 21 24 22 29 36 40 23 4 356 341 325 308 301 292 282 262 248 244 241 237 232 225 222 219 220 218 215 215 217 219 224 234 227 226 224 222 222 220 219 218
Height
1513 1512 1512 1514 1515 1517 1519 1521 1522 1524 1525 1527 1528 1529 1530 1531 1532 1533 1533 1534 1534 1535 1535 1536 1536 1537 1537 1537 1537 1537 1538 1538 1538 1538 1538 1539 1539 1539 1539 1539 1540 1540 1539
1513 1512 1512 1514 1516 1517 1519 1521 1523 1524 1526 1527 1528 1530 1531 1532 1532 1533 1534 1534 1535 1535 1536 1537 1537 1538 1538 1539 1539 1539 1539 1540 1540 1540 1540 1540 1540 1540 1541 1541 1541 1541 1540
1512 1512 1512 1514 1516 1517 1519 1521 1523 1524 1526 1527 1529 1530 1531 1532 1533 1533 1534 1535 1536 1536 1537 1538 1538 1539 1540 1540 1540 1541 1541 1541 1542 1542 1542 1542 1542 1542 1542 1542 1542 1541 1541
1513 1512 1513 1514 1516 1518 1519 1521 1523 1524 1526 1527 1528 1530 1531 1532 1533 1533 1534 1535 1536 1537 1538 1538 1539 1540 1541 1541 1542 1542 1542 1543 1543 1543 1545 1545 1543 1543 1543 1543 1542 1542 1542
1513 1513 1513 1514 1516 1517 1519 1521 1522 1524 1525 1527 1528 1529 1530 1531 1532 1533 1534 1535 1536 1537 1538 1539 1540 1541 1541 1542 1543 1543 1543 1544 1544 1545 1545 1545 1545 1544 1543 1543 1543 1543 1543
1513 1513 1513 1514 1515 1517 1518 1520 1521 1523 1524 1526 1527 1528 1530 1531 1532 1533 1534 1535 1536 1537 1538 1539 1540 1541 1542 1543 1543 1544 1544 1545 1545 1546 1546 1546 1546 1545 1544 1544 1544 1544 1544
1512 1512 1513 1514 1515 1516 1518 1519 1520 1522 1523 1524 1526 1527 1528 1530 1531 1532 1533 1534 1536 1537 1538 1539 1540 1542 1543 1543 1544 1544 1545 1545 1546 1547 1547 1547 1546 1545 1545 1545 1545 1545 1545
1511 1512 1512 1513 1514 1515 1516 1518 1519 1520 1522 1523 1524 1526 1527 1528 1530 1531 1532 1533 1535 1536 1538 1539 1540 1542 1543 1543 1544 1545 1545 1546 1546 1547 1547 1547 1546 1546 1546 1546 1546 1546 1545
1511 1511 1511 1512 1512 1513 1514 1516 1517 1519 1520 1521 1523 1524 1525 1527 1528 1530 1531 1532 1534 1535 1537 1538 1540 1541 1542 1543 1544 1545 1545 1546 1548 1547 1547 1547 1546 1546 1546 1546 1546 1546 1546
1509 1509 1510 1510 1511 1511 1512 1513 1515 1516 1518 1519 1520 1522 1524 1525 1526 1528 1529 1531 1532 1534 1536 1537 1539 1540 1542 1543 1544 1545 1545 1546 1548 1547 1547 1547 1546 1546 1546 1546 1546 1546 1546
1508 1508 1508 1508 1508 1509 1510 1511 1512 1513 1515 1516 1518 1519 1521 1522 1524 1525 1527 1529 1530 1532 1534 1536 1538 1539 1541 1542 1543 1544 1545 1546 1547 1547 1547 1546 1546 1546 1546 1546 1546 1546 1546
1505 1505 1505 1505 1506 1506 1507 1508 1509 1510 1511 1513 1515 1516 1518 1519 1521 1522 1524 1526 1528 1530 1532 1534 1536 1538 1539 1541 1542 1543 1544 1545 1546 1546 1546 1546 1546 1546 1546 1546 1546 1546 1546
1502 1502 1502 1502 1502 1503 1503 1504 1505 1507 1508 1509 1511 1513 1514 1516 1517 1519 1521 1522 1525 1527 1529 1531 1533 1535 1537 1539 1540 1541 1543 1544 1544 1545 1545 1545 1545 1545 1545 1545 1545 1545 1545
1498 1498 1498 1499 1499 1499 1500 1500 1501 1503 1504 1505 1507 1509 1510 1511 1513 1515 1517 1519 1521 1523 1526 1528 1530 1532 1534 1536 1538 1539 1540 1541 1542 1543 1543 1543 1544 1544 1544 1544 1544 1544 1544
1494 1494 1494 1495 1495 1495 1496 1496 1497 1498 1500 1501 1503 1505 1506 1507 1509 1511 1513 1515 1518 1519 1521 1524 1526 1529 1531 1533 1534 1536 1538 1539 1540 1541 1541 1541 1542 1542 1542 1543 1543 1543 1543
1490 1490 1490 1490 1490 1491 1491 1492 1493 1494 1495 1497 1498 1500 1502 1503 1505 1507 1509 1511 1513 1515 1518 1520 1523 1525 1527 1529 1531 1533 1534 1536 1537 1538 1538 1539 1539 1540 1540 1540 1541 1541 1541
1485 1485 1485 1485 1485 1486 1486 1487 1488 1489 1491 1492 1493 1495 1497 1499 1501 1503 1505 1507 1509 1512 1514 1516 1518 1521 1523 1525 1527 1529 1531 1532 1533 1534 1535 1536 1536 1537 1537 1538 1538 1538 1538
1480 1479 1479 1480 1480 1480 1481 1482 1483 1484 1486 1487 1489 1490 1492 1494 1496 1498 1500 1502 1505 1507 1509 1511 1514 1516 1518 1521 1523 1525 1526 1528 1529 1531 1532 1532 1533 1533 1534 1535 1535 1536 1536
1475 1474 1474 1474 1474 1475 1476 1477 1478 1479 1481 1482 1484 1485 1487 1489 1491 1493 1495 1497 1500 1502 1504 1506 1509 1511 1514 1516 1519 1520 1522 1523 1525 1526 1527 1528 1529 1530 1530 1531 1532 1532 1533
1470 1469 1469 1469 1469 1470 1471 1472 1473 1475 1476 1478 1479 1481 1483 1485 1487 1488 1490 1492 1495 1497 1499 1501 1503 1506 1509 1512 1514 1516 1517 1519 1520 1521 1523 1524 1524 1525 1526 1527 1527 1528 1529
1466 1465 1464 1465 1465 1465 1466 1467 1468 1470 1472 1473 1474 1476 1478 1480 1482 1484 1485 1487 1489 1491 1493 1496 1498 1501 1504 1506 1509 1511 1512 1513 1514 1516 1517 1518 1519 1520 1521 1522 1523 1524 1524
1462 1461 1460 1460 1460 1461 1462 1463 1464 1466 1467 1469 1470 1471 1473 1475 1477 1478 1480 1482 1484 1486 1488 1490 1493 1495 1498 1501 1503 1506 1508 1509 1508 1509 1511 1512 1514 1515 1516 1517 1518 1519 1519
1460 1459 1458 1457 1458 1458 1458 1459 1460 1462 1463 1465 1466 1467 1468 1470 1472 1473 1475 1476 1478 1480 1482 1484 1486 1489 1492 1494 1497 1500 1501 1501 1503 1503 1503 1505 1507 1508 1510 1511 1512 1513 1514
1459 1457 1456 1455 1455 1456 1456 1456 1457 1458 1459 1461 1462 1463 1464 1466 1467 1468 1470 1471 1473 1474 1476 1478 1480 1482 1485 1487 1490 1492 1494 1495 1497 1497 1498 1499 1500 1502 1503 1504 1506 1507 1508
1459 1457 1455 1455 1454 1454 1454 1454 1455 1456 1457 1458 1459 1460 1461 1461 1462 1463 1464 1466 1467 1469 1470 1472 1474 1476 1477 1480 1482 1484 1486 1488 1490 1492 1492 1492 1493 1494 1496 1498 1499 1500 1502
1460 1457 1455 1455 1454 1453 1453 1453 1453 1454 1454 1455 1455 1456 1457 1457 1458 1459 1460 1461 1461 1462 1464 1465 1466 1469 1470 1472 1474 1476 1478 1480 1481 1484 1486 1486 1486 1488 1489 1490 1491 1493 1495